{"data":{"norad_id":68753,"epoch":"2026-09-19T21:43:08.671008Z","epoch_age_seconds":111034,"freshness":"FRESH","line1":"1 68753U 26083A   26262.90496147  .00003302  00000+0  13597-3 0  9991","line2":"2 68753  98.2851  63.8845 0060992 263.6333  95.7953 15.23294625 23743","mean_motion":15.23294625,"eccentricity":0.0060992,"inclination_deg":98.2851,"raan_deg":63.8845,"arg_perigee_deg":263.6333,"mean_anomaly_deg":95.7953,"bstar":0.00013597,"rev_number":2374,"period_min":94.531942564952,"perigee_km":453.98492941174,"apogee_km":537.83731804423,"semimajor_km":6874.048123728,"source":"CELESTRAK","updated_at":"2026-09-20T09:00:24.451359Z"}}